Location: Lecco
(45.8566°N, 9.3977°E)
Time: 06:14:21
(UTC+02:00)

ISS - Pass Details

Date: 14 July 2018
Orbit: 402 x 408 km, 51.6° (Epoch: 23 July)

Event Time Altitude Azimuth Distance (km) Brightness Sun altitude
Exits shadow 01:07:24 10° 74° (ENE) 1,446 -0.9 -22.3°
Drops below altitude 10° 01:07:27 10° 74° (ENE) 1,469 -0.9 -22.3°
Sets 01:09:38 0° 66° (ENE) 2,334 0.3 -22.3°
